HULIANWANG DIGUI-72

导读 | 豆包AI

“HULIANWANG DIGUI-72”是中国于2025年8月17日成功发射的低轨卫星,是中国低轨互联网星座组网建设中的重要组成部分,承担着全球互联网覆盖与通信服务试验任务,该卫星入轨后运行状态稳定,将进一步完善星座网络布局,提升全球宽带通信服务能力,为天地一体化网络建设奠定坚实基础,推动卫星互联网产业发展。

Basic Information
目录编号:
65232
目录名称:
HULIANWANG DIGUI-72
国际标识:
2025-178E
轨道中心:
EARTH
卫星名称:
HULIANWANG DIGUI-72
卫星全名:
HULIANWANG DIGUI-72
卫星状态:
在轨 (已飞行209 天)
发射日期:
2025-08-17 UTC
国别 :
中国 (CN)
星等 :
--
Orbit Information
数据来源 国际轨道数据 AOE轨道数据
星历时间 2026-03-14T07:38:28+0800
15小时前
查看轨道信息
2026-03-13T15:00:00+0800
1天前
查看轨道信息
半长轴 7546.02km 7546.017km
偏心率 0.0002009 0.0001913
轨道倾角 86.496° 86.496°
近地点辐角 77.905° 77.454°
升交点赤经 45.620° 45.857°
平近点角 282.231° 218.579°
近地点 1166.367km 1166.436km
远地点 1169.399km 1169.324km
周期 108.727分钟 108.727分钟
每日圈数 13.244205 13.244212
Detailed Information
使用方式:
暂无
2D Orbit Map
3D Orbit Map
Orbit Altitude Analysis Chart
Orbit Inclination Analysis Chart
Orbit Comprehensive Analysis Chart
View Comprehensive Chart